IST,Max TemperatureF,Mean TemperatureF,Min TemperatureF,Max Dew PointF,MeanDew PointF,Min DewpointF,Max Humidity, Mean Humidity, Min Humidity, Max Sea Level PressureIn, Mean Sea Level PressureIn, Min Sea Level PressureIn, Max VisibilityMiles, Mean VisibilityMiles, Min VisibilityMiles, Max Wind SpeedMPH, Mean Wind SpeedMPH, Max Gust SpeedMPH,PrecipitationIn, CloudCover, Events, WindDirDegrees
2013-12-1,83,67,51,45,41,34,63,38,11,30.12,30.03,29.95,2,2,1,6,1,,0.00,,,245
2013-12-2,83,67,51,48,40,34,67,40,11,30.09,30.01,29.91,2,2,1,6,1,,0.00,,,173
2013-12-3,83,68,53,51,45,39,67,43,18,30.09,30.01,29.93,2,2,1,7,2,,0.00,,,88
2013-12-4,83,68,54,51,44,33,77,43,10,30.12,30.06,29.97,2,2,1,7,3,,0.00,,,337
2013-12-5,81,66,50,45,38,26,76,40,7,30.12,30.03,29.92,3,2,1,8,1,,0.00,,,340
2013-12-6,81,65,49,47,41,34,71,44,14,30.06,29.98,29.88,2,1,1,6,1,,0.00,,,304
2013-12-7,80,64,49,48,44,39,67,48,16,30.04,29.97,29.89,2,1,1,6,1,,0.00,1,,188
2013-12-8,83,68,52,50,46,41,67,49,17,30.04,29.96,29.85,2,1,1,6,1,,0.00,,,143
2013-12-9,83,68,52,52,46,41,82,52,16,30.01,29.93,29.83,2,1,1,6,1,,0.00,,,265
2013-12-10,81,66,52,49,47,41,82,52,18,30.04,29.95,29.87,2,1,1,7,1,,0.00,,,117
2013-12-11,80,65,50,50,44,37,82,48,14,30.06,29.97,29.68,2,2,1,8,2,,0.00,,,280
2013-12-12,80,66,52,48,44,39,72,44,16,30.06,29.98,29.91,2,2,1,9,3,,0.00,,,318
2013-12-13,80,68,55,49,45,41,63,45,22,30.04,29.96,29.86,2,2,1,13,4,,0.00,,,300
2013-12-14,83,70,57,49,46,43,67,49,18,29.98,29.92,29.83,2,2,1,10,5,,0.00,,,314
2013-12-15,84,68,53,50,46,41,72,47,17,30.04,29.97,29.89,2,2,1,7,2,,0.00,,,296
2013-12-16,82,66,51,52,47,37,94,54,18,30.09,30.00,29.91,3,2,1,7,2,,0.00,,,232
2013-12-17,80,65,50,52,47,45,82,54,24,30.04,29.97,29.86,3,2,1,9,2,,0.00,1,,258
2013-12-18,82,67,52,54,50,46,82,54,25,29.98,29.90,29.80,4,2,1,9,2,,0.00,1,,246
2013-12-19,76,65,54,56,49,36,88,65,25,29.98,29.90,29.82,3,2,1,9,2,,0.00,,,278
2013-12-20,65,60,55,56,55,54,100,80,62,30.06,29.99,29.93,9,1,0,8,3,,0.00,6,Fog,57
2013-12-21,67,60,52,55,52,48,100,80,49,30.06,30.01,29.94,1,1,0,8,3,,0.00,5,Fog,121
2013-12-22,70,61,52,55,52,50,100,77,45,30.12,30.07,29.94,1,1,0,8,4,,0.00,2,Fog,69
2013-12-23,70,59,48,52,47,36,100,71,29,30.21,30.15,30.09,2,1,0,6,2,,0.00,3,Fog,286
2013-12-24,72,58,45,48,43,34,100,61,19,30.24,30.17,30.09,2,1,1,7,2,,0.00,,,349
2013-12-25,74,60,45,43,36,25,81,46,10,30.24,30.16,30.08,2,2,1,5,2,,0.00,3,,66
2013-12-26,72,58,45,42,34,28,66,40,13,30.21,30.11,30.03,3,2,1,9,3,,0.00,2,,79
2013-12-27,66,58,51,39,34,28,62,38,17,30.12,30.06,29.99,3,2,1,13,6,,0.00,2,,85
2013-12-28,72,58,44,42,37,30,76,49,18,30.15,30.08,30.01,2,2,1,9,1,,0.00,1,,108
2013-12-29,72,56,40,34,24,10,54,30,5,30.15,30.08,30.00,3,2,1,7,2,,0.00,,,80
2013-12-30,62,53,44,48,35,28,82,49,26,30.12,30.04,29.98,2,1,1,15,6,,0.00,3,,87
2013-12-31,64,57,50,53,51,48,94,83,58,30.18,30.08,30.00,1,1,0,8,5,18,0.00,3,Fog,93